Pinedale, WY

10:01 AM MST on February 20, 2017 (GMT -0700)
Wenz

Weather History for KPNA - December, 2013

Change the Weather History Date:

Thursday, December 5, 2013

  Actual Average (KBPI) Record (KBPI)
Temperature  
Mean Temperature -9 °F -  
Max Temperature 5 °F 26 °F 45 °F (2014)
Min Temperature -23 °F 2 °F -33 °F (1992)
Degree Days  
Heating Degree Days 74    
Moisture  
Dew Point -19 °F    
Average Humidity 76    
Maximum Humidity 92    
Minimum Humidity 56    
Precipitation  
Precipitation 0.00 in - - ()
Sea Level Pressure  
Sea Level Pressure 29.85 in    
Wind  
Wind Speed 4 mph (WNW)    
Max Wind Speed 10 mph    
Max Gust Speed -    
Visibility 10 miles    
Events      
Averages and records for this station are not official NWS values.
T = Trace of Precipitation, MM = Missing Value Source: NWS Daily Summary

Daily Weather History Graph

Daily Weather History Graph

Search for Another Location

Airport or City:

Trip Planner

Search our weather history database for the weather conditions in past years. The results will help you decide how hot, cold, wet, or windy it might be!

Date:

Astronomy

Dec. 05, 2013 Rise Set
Actual Time 7:34 AM MST 4:45 PM MST
Civil Twilight 7:02 AM MST 5:17 PM MST
Nautical Twilight 6:27 AM MST 5:52 PM MST
Astronomical Twilight 5:53 AM MST 6:26 PM MST
Moon 9:55 AM MST (12/5) 8:12 PM MST (12/5)
Length of Visible Light 10h 14m
Length of Day
9h 10m
Waxing Crescent, 11% of the Moon is Illuminated
Dec 5
Waxing Crescent
Dec 9
First Quarter
Dec 17
Full
Dec 25
Last Quarter
Jan 1
New

Hourly Weather History & Observations

Time (MST) Temp. Windchill Dew Point Humidity Pressure Visibility Wind Dir Wind Speed Gust Speed Precip Events Conditions
12:15 AM -22.0 °F -37.7 °F -25.6 °F 83% 29.89 in 10.0 mi WNW 5.8 mph - N/A   Clear
12:35 AM -22.0 °F -35.6 °F -25.6 °F 83% 29.89 in 10.0 mi West 4.6 mph - N/A   Clear
12:55 AM -22.0 °F -39.4 °F -25.6 °F 83% 29.88 in 10.0 mi NW 6.9 mph - N/A   Mostly Cloudy
1:15 AM -18.4 °F -31.4 °F -25.6 °F 70% 29.87 in 10.0 mi WNW 4.6 mph - N/A   Scattered Clouds
1:35 AM -18.4 °F -33.4 °F -25.6 °F 70% 29.87 in 10.0 mi NW 5.8 mph - N/A   Clear
1:55 AM -20.2 °F -37.3 °F -25.6 °F 76% 29.87 in 10.0 mi NW 6.9 mph - N/A   Clear
2:15 AM -20.2 °F -35.5 °F -25.6 °F 76% 29.87 in 10.0 mi WNW 5.8 mph - N/A   Clear
2:35 AM -22.0 °F -35.6 °F -27.4 °F 76% 29.87 in 7.0 mi WNW 4.6 mph - N/A   Scattered Clouds
2:55 AM -18.4 °F -39.1 °F -23.8 °F 76% 29.87 in 10.0 mi NW 10.4 mph - N/A   Overcast
3:15 AM -18.4 °F -33.4 °F -23.8 °F 76% 29.87 in 10.0 mi NW 5.8 mph - N/A   Overcast
3:35 AM -18.4 °F - -23.8 °F 76% 29.86 in 10.0 mi Calm Calm - N/A   Overcast
3:55 AM -18.4 °F -31.4 °F -25.6 °F 70% 29.85 in 10.0 mi WNW 4.6 mph - N/A   Mostly Cloudy
4:15 AM -18.4 °F -33.4 °F -25.6 °F 70% 29.85 in 10.0 mi WNW 5.8 mph - N/A   Scattered Clouds
4:35 AM -18.4 °F -33.4 °F -25.6 °F 70% 29.85 in 10.0 mi West 5.8 mph - N/A   Scattered Clouds
4:55 AM -20.2 °F -35.5 °F -25.6 °F 76% 29.84 in 10.0 mi WNW 5.8 mph - N/A   Scattered Clouds
5:15 AM -20.2 °F -40.1 °F -25.6 °F 76% 29.84 in 10.0 mi NW 9.2 mph - N/A   Clear
5:35 AM -22.0 °F -35.6 °F -27.4 °F 76% 29.84 in 10.0 mi NNW 4.6 mph - N/A   Clear
5:55 AM -22.0 °F -37.7 °F -27.4 °F 76% 29.84 in 10.0 mi West 5.8 mph - N/A   Clear
6:15 AM -22.0 °F - -27.4 °F 76% 29.84 in 10.0 mi Calm Calm - N/A   Clear
6:35 AM -20.2 °F - -25.6 °F 76% 29.84 in 4.0 mi Calm Calm - N/A   Haze
6:55 AM -23.8 °F -37.7 °F -31.0 °F 69% 29.84 in 4.0 mi West 4.6 mph - N/A   Haze
7:15 AM -23.8 °F -39.8 °F -29.2 °F 76% 29.84 in 10.0 mi West 5.8 mph - N/A   Clear
7:35 AM -23.8 °F -39.8 °F -29.2 °F 76% 29.84 in 10.0 mi West 5.8 mph - N/A   Scattered Clouds
7:55 AM -22.0 °F -39.4 °F -27.4 °F 76% 29.84 in 10.0 mi West 6.9 mph - N/A   Clear
8:15 AM -20.2 °F -35.5 °F -25.6 °F 76% 29.85 in 10.0 mi West 5.8 mph - N/A   Clear
8:35 AM -22.0 °F - -27.4 °F 76% 29.85 in 10.0 mi Calm Calm - N/A   Clear
8:55 AM -18.4 °F -28.9 °F -23.8 °F 76% 29.86 in 10.0 mi West 3.5 mph - N/A   Clear
9:15 AM -16.6 °F - -23.8 °F 70% 29.86 in 10.0 mi Calm Calm - N/A   Clear
9:35 AM -14.8 °F -24.8 °F -22.0 °F 70% 29.86 in 10.0 mi WNW 3.5 mph - N/A   Clear
9:55 AM -13.0 °F -31.3 °F -16.6 °F 84% 29.86 in 10.0 mi NW 9.2 mph - N/A   Clear
10:15 AM -11.2 °F -24.8 °F -16.6 °F 77% 29.87 in 10.0 mi NNW 5.8 mph - N/A   Clear
10:35 AM -9.4 °F -18.6 °F -14.8 °F 77% 29.87 in 10.0 mi NW 3.5 mph - N/A   Clear
10:55 AM -7.6 °F - -13.0 °F 77% 29.86 in 10.0 mi Calm Calm - N/A   Clear
11:15 AM -4.0 °F -16.3 °F -9.4 °F 78% 29.85 in 10.0 mi ESE 5.8 mph - N/A   Clear
11:35 AM -5.8 °F -16.7 °F -11.2 °F 77% 29.85 in 10.0 mi ESE 4.6 mph - N/A   Clear
11:55 AM -5.8 °F -18.4 °F -11.2 °F 77% 29.84 in 10.0 mi ESE 5.8 mph - N/A   Clear
12:15 PM -5.8 °F -14.5 °F -9.4 °F 84% 29.83 in 10.0 mi East 3.5 mph - N/A   Clear
12:35 PM -4.0 °F -12.4 °F -7.6 °F 85% 29.83 in 10.0 mi East 3.5 mph - N/A   Clear
12:55 PM -0.4 °F -10.4 °F -7.6 °F 72% 29.82 in 10.0 mi East 4.6 mph - N/A   Clear
1:15 PM -0.4 °F - -9.4 °F 66% 29.81 in 10.0 mi Calm Calm - N/A   Clear
1:35 PM 1.4 °F - -9.4 °F 61% 29.80 in 10.0 mi Calm Calm - N/A   Clear
1:55 PM 3.2 °F - -9.4 °F 56% 29.80 in 10.0 mi Calm Calm - N/A   Clear
2:35 PM 1.4 °F - -9.4 °F 61% 29.80 in 10.0 mi Calm Calm - N/A   Clear
2:55 PM 1.4 °F - -9.4 °F 61% 29.80 in 10.0 mi Calm Calm - N/A   Clear
3:15 PM 5.0 °F - -7.6 °F 56% 29.81 in 10.0 mi Calm Calm - N/A   Clear
3:35 PM 1.4 °F -8.3 °F -9.4 °F 61% 29.81 in 10.0 mi South 4.6 mph - N/A   Clear
3:55 PM 1.4 °F -8.3 °F -7.6 °F 66% 29.81 in 10.0 mi SSW 4.6 mph - N/A   Clear
4:15 PM -0.4 °F -8.3 °F -9.4 °F 66% 29.82 in 10.0 mi SSW 3.5 mph - N/A   Clear
4:35 PM -4.0 °F -14.6 °F -9.4 °F 78% 29.82 in 10.0 mi SSW 4.6 mph - N/A   Clear
4:55 PM -5.8 °F - -13.0 °F 71% 29.82 in 10.0 mi Calm Calm - N/A   Clear
5:15 PM -4.0 °F - -9.4 °F 78% 29.83 in 10.0 mi Calm Calm - N/A   Clear
5:35 PM -5.8 °F - -11.2 °F 77% 29.83 in 10.0 mi Calm Calm - N/A   Clear
5:55 PM -7.6 °F - -13.0 °F 77% 29.84 in 10.0 mi Calm Calm - N/A   Clear
6:15 PM -13.0 °F - -18.4 °F 77% 29.84 in 10.0 mi Calm Calm - N/A   Clear
6:35 PM -13.0 °F - -16.6 °F 84% 29.85 in 10.0 mi Calm Calm - N/A   Scattered Clouds
6:55 PM -11.2 °F - -14.8 °F 84% 29.85 in 10.0 mi Calm Calm - N/A   Scattered Clouds
7:15 PM -13.0 °F - -16.6 °F 84% 29.85 in 10.0 mi Calm Calm - N/A   Clear
7:35 PM -11.2 °F - -14.8 °F 84% 29.85 in 10.0 mi Calm Calm - N/A   Scattered Clouds
7:55 PM -11.2 °F - -16.6 °F 77% 29.87 in 10.0 mi Calm Calm - N/A   Scattered Clouds
8:15 PM -9.4 °F - -14.8 °F 77% 29.87 in 10.0 mi Calm Calm - N/A   Scattered Clouds
8:35 PM -11.2 °F - -14.8 °F 84% 29.87 in 10.0 mi Calm Calm - N/A   Scattered Clouds
8:55 PM -13.0 °F -25.1 °F -16.6 °F 84% 29.87 in 10.0 mi WNW 4.6 mph - N/A   Scattered Clouds
9:15 PM -13.0 °F -22.7 °F -18.4 °F 77% 29.87 in 10.0 mi NW 3.5 mph - N/A   Scattered Clouds
9:35 PM -14.8 °F - -18.4 °F 84% 29.87 in 10.0 mi Calm Calm - N/A   Scattered Clouds
9:55 PM -14.8 °F -27.2 °F -20.2 °F 77% 29.87 in 10.0 mi WNW 4.6 mph - N/A   Mostly Cloudy
10:15 PM -14.8 °F - -18.4 °F 84% 29.87 in 10.0 mi Calm Calm - N/A   Mostly Cloudy
10:35 PM -13.0 °F -22.7 °F -14.8 °F 92% 29.87 in 10.0 mi West 3.5 mph - N/A   Scattered Clouds
10:55 PM -14.8 °F -27.2 °F -18.4 °F 84% 29.87 in 10.0 mi West 4.6 mph - N/A   Scattered Clouds
11:15 PM -14.8 °F -29.1 °F -18.4 °F 84% 29.87 in 10.0 mi WNW 5.8 mph - N/A   Clear
11:35 PM -16.6 °F -29.3 °F -22.0 °F 76% 29.87 in 10.0 mi West 4.6 mph - N/A   Scattered Clouds
11:55 PM -16.6 °F -31.3 °F -22.0 °F 76% 29.88 in 10.0 mi WNW 5.8 mph - N/A   Mostly Cloudy